Location: Street
(51.1247°N, 2.7429°W)
Time: 09:52:18
(UTC+00:00)

Tiros 1 - Pass Details

Date: 02 December 2020
Orbit: 630 x 663 km, 48.4° (Epoch: 21 January)

Event Time Altitude Azimuth Distance (km) Brightness Sun altitude
Rises 16:26:10 0° 257° (WSW) 2,993 12.3 -3.4°
Reaches altitude 10° 16:28:32 10° 254° (WSW) 2,080 11.4 -3.7°
Maximum altitude 16:33:17 62° 174° (S) 742 7.6 -4.4°
Drops below altitude 10° 16:38:00 10° 95° (E) 2,070 9.3 -5.0°
Enters shadow 16:39:51 - 92° (E) 2,784 9.9 -5.3°
Sets 16:40:21 0° 92° (E) 2,977 - -5.3°
